Weather History for Livingston, MT

Change the Weather History Date:

Tuesday, February 19, 2013

  Actual Average Record
Temperature  
Mean Temperature 24 °F 30 °F  
Max Temperature 32 °F 41 °F 63 °F (1958)
Min Temperature 17 °F 19 °F -19 °F (2006)
Degree Days  
Heating Degree Days 40 35  
Month to date heating degree days 696  
Since 1 July heating degree days 5037  
Moisture  
Dew Point 15 °F    
Average Humidity 73    
Maximum Humidity 81    
Minimum Humidity 54    
Precipitation  
Precipitation 0.00 in 0.02 in 0.32 in (1986)
Month to date precipitation 0.32  
Year to date precipitation 0.81  
Sea Level Pressure  
Sea Level Pressure 29.88 in    
Wind  
Wind Speed 10 mph (East)    
Max Wind Speed 15 mph    
Max Gust Speed -    
Visibility 10 miles    
Events      
T = Trace of Precipitation, MM = Missing Value Source: NWS Daily Summary

Daily Weather History Graph

Daily Weather History Graph

Search for Another Location

Airport:

Trip Planner

Search our weather history database for the weather conditions in past years. The results will help you decide how hot, cold, wet, or windy it might be!

Date:

Astronomy

Feb. 19, 2013 Rise Set
Actual Time 7:16 AM MST 5:54 PM MST
Civil Twilight 6:46 AM MST 6:25 PM MST
Nautical Twilight 6:12 AM MST 6:59 PM MST
Astronomical Twilight 5:37 AM MST 7:34 PM MST
Moon 12:19 PM MST (2/19) 3:01 AM MST (2/19)
Length of Visible Light 11h 38m
Length of Day
10h 37m
Waxing Gibbous, 68% of the Moon is Illuminated
Feb 19
Waxing Gibbous
Feb 25
Full
Mar 4
Last Quarter
Mar 11
New
Mar 19
First Quarter

Hourly Weather History & Observations

Time (MST) Temp. Windchill Dew Point Humidity Pressure Visibility Wind Dir Wind Speed Gust Speed Precip Events Conditions
12:53 AM 21.0 °F 10.6 °F 15.1 °F 78% 29.99 in 10.0 mi East 9.2 mph - N/A   Scattered Clouds
1:53 AM 19.0 °F 7.5 °F 14.0 °F 81% 29.97 in 10.0 mi ESE 10.4 mph - N/A   Clear
2:53 AM 19.9 °F 8.6 °F 14.0 °F 78% 29.96 in 10.0 mi ESE 10.4 mph - N/A   Clear
3:53 AM 18.0 °F 8.7 °F 12.9 °F 81% 29.94 in 10.0 mi ESE 6.9 mph - N/A   Scattered Clouds
4:53 AM 19.9 °F 6.2 °F 15.1 °F 81% 29.91 in 10.0 mi ESE 15.0 mph - N/A   Scattered Clouds
5:53 AM 19.0 °F 6.1 °F 14.0 °F 81% 29.93 in 10.0 mi East 12.7 mph - N/A   Overcast
6:53 AM 19.0 °F 6.8 °F 14.0 °F 81% 29.93 in 10.0 mi East 11.5 mph - N/A   Mostly Cloudy
7:53 AM 18.0 °F 5.4 °F 12.9 °F 81% 29.93 in 10.0 mi East 11.5 mph - N/A   Partly Cloudy
8:53 AM 19.0 °F 6.1 °F 14.0 °F 81% 29.92 in 10.0 mi East 12.7 mph - N/A   Clear
9:53 AM 19.9 °F 8.6 °F 15.1 °F 81% 29.91 in 10.0 mi East 10.4 mph - N/A   Overcast
11:53 AM 25.0 °F 14.8 °F 17.1 °F 72% 29.86 in - East 10.4 mph - N/A   Clear
12:53 PM 28.0 °F 17.5 °F 17.1 °F 63% 29.81 in - East 12.7 mph - N/A   Clear
1:53 PM 30.0 °F 20.5 °F 17.1 °F 59% 29.79 in - East 11.5 mph - N/A   Partly Cloudy
2:53 PM 32.0 °F 23.0 °F 17.1 °F 54% 29.76 in - East 11.5 mph - N/A   Clear
3:53 PM 32.0 °F 23.6 °F 17.1 °F 54% 29.78 in - ENE 10.4 mph - N/A   Scattered Clouds
5:53 PM 27.0 °F 18.0 °F 15.1 °F 61% 29.80 in - East 9.2 mph - N/A   Clear
6:53 PM 25.0 °F 16.3 °F 15.1 °F 66% 29.82 in - East 8.1 mph - N/A   Clear
7:53 PM 23.0 °F 15.8 °F 15.1 °F 72% 29.84 in - ESE 5.8 mph - N/A   Overcast
8:53 PM 21.0 °F 16.2 °F 14.0 °F 74% 29.86 in - SE 3.5 mph - N/A   Clear
9:53 PM 18.0 °F - 12.0 °F 78% 29.87 in - Calm Calm - N/A   Clear
10:53 PM 17.1 °F - 10.9 °F 77% 29.87 in - Calm Calm - N/A   Clear
11:53 PM 17.1 °F 8.7 °F 12.0 °F 81% 29.86 in - NNW 5.8 mph - N/A   Clear